Miscellaneous Local Product
Issued by NWS North Platte, NE

Home | Current Version | Previous Version | Graphics & Text | Print | Product List | Glossary On
Versions: 1 2 3 4 5 6 7 8 9 10 11 12 13 14 15 16 17 18 19 20 21 22 23 24 25 26 27 28 29 30 31 32 33 34 35 36 37 38 39 40 41 42 43 44 45 46 47 48 49 50
000
AXUS43 KLBF 292310
MISLBF


WESTERN AND NORTH CENTRAL NEBRASKA HOURLY WEATHER ROUNDUP
NATIONAL WEATHER SERVICE NORTH PLATTE NE
600 PM CDT MON JUN 29 2015

***STATIONS NOT REPORTING VARIABLES SUCH AS SKY/WEATHER OR
PRESSURE ARE PROVIDED BY THE NEBRASKA DEPARTMENT OF
ROADS...RAWS...AND APRS NETWORKS...AND ARE NOT UNDER
NATIONAL WEATHER SERVICE QUALITY CONTROL***

...OBSERVATIONS IN AND NEAR THE EASTERN PANHANDLE OF NEBRASKA...

CITY           SKY/WX    TMP DP  RH WIND       PRES   REMARKS
PINE RIDGE     SUNNY     89  54  30 NE6       30.07S
CHADRON        MOSUNNY   82  66  58 N3        30.06S
ALLIANCE       SUNNY     88  54  31 NE9       30.09F
SIDNEY         SUNNY     88  53  30 N7        30.13F
WHITECLAY        N/A     87  59  37 CALM        N/A
CRESCENT LAKE    N/A     89  53  28 N7          N/A
$$

...OBSERVATIONS IN NORTH CENTRAL NEBRASKA...

CITY           SKY/WX    TMP DP  RH WIND       PRES   REMARKS
VALENTINE      SUNNY     89  60  37 N3        30.01F
THEDFORD       SUNNY     90  58  33 N7        30.03S
AINSWORTH      SUNNY     88  56  33 N7        30.02S
O`NEILL        SUNNY     86  58  38 NE7       29.97F
ORD            SUNNY     90  54  29 N12       29.96S
BROKEN BOW     SUNNY     89  61  38 N6        30.00F
VALENTINE NWR    N/A     89  58  35 NE6         N/A
SPRINGVIEW       N/A     89  61  39 NW3G13      N/A
HALSEY           N/A     91  56  30 NE5         N/A
BREWSTER         N/A     92  59  33 E5          N/A  HX  91
ROSE             N/A     95  66  38 NW10        N/A  HX  98
NEWPORT          N/A     90  55  29 SW5         N/A
SARGENT          N/A     91  52  26 CALM        N/A
CHAMBERS         N/A     91  59  33 N3          N/A  HX  90
EWING            N/A     86  63  46 CALM        N/A
$$

...OBSERVATIONS IN SOUTHWEST NEBRASKA AND FAR NORTHEAST COLORADO...

CITY           SKY/WX    TMP DP  RH WIND       PRES   REMARKS
WRAY           FAIR      93  46  19 CALM      30.09S
HOLYOKE        FAIR      95  48  20 N8        30.09F HX  91
IMPERIAL       SUNNY     89  53  29 CALM      30.06F
OGALLALA       SUNNY     89  53  29 N6        30.06S
NORTH PLATTE   MOSUNNY   89  54  30 CALM      30.01F
MCCOOK         SUNNY     93  56  28 N7        30.00F HX  91
LEXINGTON      SUNNY     93  54  26 NE7       29.99F HX  90
PAXTON           N/A     92  56  29 CALM        N/A  HX  90
GOTHENBURG       N/A     93  52  24 NE3         N/A  HX  90
CALLAWAY         N/A     92  63  38 N6          N/A  HX  93
$$

...NORTH PLATTE AREA...

CITY           SKY/WX    TMP DP  RH WIND       PRES   REMARKS
AIRPORT        MOSUNNY   89  54  30 CALM      30.01F
DOWNTOWN         N/A     92  60  34 CALM        N/A  HX  91
HILLCREST        N/A     90  58  34 E7          N/A
$$

...SOME WEATHER OBSERVATIONS FROM AROUND THE REGION...

CITY           SKY/WX    TMP DP  RH WIND       PRES   REMARKS
DENVER         PTSUNNY   82  48  30 N8        30.20F
LARAMIE        MOSUNNY   81  44  27 NE10G16   30.34F
CHEYENNE       MOSUNNY   82  44  26 N12G17    30.26F
SCOTTSBLUFF    MOSUNNY   92  53  26 VRB5      30.08F
RAPID CITY     SUNNY     89  58  34 E6        30.05S
PIERRE         SUNNY     89  61  38 NW9       29.93S
WINNER         FAIR      93  49  22 NW10      29.96F HX  90
SIOUX FALLS    SUNNY     82  59  45 NW7       29.91S HAZE
OMAHA          CLOUDY    85  61  44 NW8       29.90S
GRAND ISLAND   SUNNY     90  56  31 NW7       29.96F
KANSAS CITY    MOSUNNY   84  65  52 NW6       29.91S
WICHITA        PTSUNNY   91  53  27 N9        29.94F
HAYS           SUNNY     97  50  20 N10G17    29.97F HX  94
LIBERAL        MOSUNNY   90  55  31 SW3       30.07F
GOODLAND       PTSUNNY   89  50  26 E6        30.08F
$$



USA.gov is the U.S. government's official web portal to all federal, state and local government web resources and services.